Simultaneous Nadir Overpasses (SNOs) Predictions

Prediction of SNOs between FY3D and AQUA Satellite Orbit:

Table of predicted SNOs for the next 14.0 days since TLE Epoch: 11/16/2024
Index Date (FY3D) Time (FY3D) Lat,Lon (FY3D) SZA (FY3D ) Date (AQUA) Time (AQUA) Lat,Lon (AQUA) SZA (AQUA ) Distance(km) Time Diff (sec)
1 11/17/2024 14:31:41 -79.69, 123.95 80.87 11/17/2024 14:32:53 -79.69, 124.02 80.88 1.48 72
2 11/17/2024 15:22:18 79.44, -66.37 98.80 11/17/2024 15:22:06 79.44, -66.42 98.81 1.16 12
3 11/20/2024 01:44:08 -79.54, -42.68 80.50 11/20/2024 01:44:44 -79.55, -42.82 80.49 3.09 36
4 11/20/2024 02:34:48 79.37, 126.13 99.29 11/20/2024 02:33:59 79.37, 126.15 99.29 0.25 49
5 11/22/2024 12:56:39 -79.51, 149.47 80.00 11/22/2024 12:56:36 -79.51, 149.58 80.01 2.29 3
6 11/24/2024 23:18:29 79.61, 173.23 100.63 11/24/2024 23:19:10 79.60, 173.30 100.61 1.56 41
7 11/25/2024 00:09:04 -79.34, -17.08 79.72 11/25/2024 00:08:22 -79.34, -17.17 79.71 1.76 42
8 11/27/2024 10:30:56 79.51, 6.09 100.96 11/27/2024 10:30:56 79.50, 6.12 100.95 0.68 0
9 11/29/2024 20:52:45 -79.61, 29.73 78.48 11/29/2024 20:53:27 -79.60, 29.82 78.50 2.04 42



Historial Predications of SNOs between FY3D and AQUA
